Location: Brindisi
(40.6330°N, 17.9330°E)
Time: 14:42:27
(UTC+01:00)

ISS - Visible Passes

Search period start: 24 January 2019 00:00
Search period end: 03 February 2019 00:00
Orbit: 404 x 410 km, 51.6° (Epoch: 24 January)

Date Brightness Start Highest point End Pass type
(mag) Time Alt. Az. Time Alt. Az. Time Alt. Az.
24 Jan -3.8 17:46:20 10° SW 17:49:35 67° SE 17:52:03 16° ENE visible
24 Jan -0.9 19:23:46 10° WNW 19:24:47 16° WNW 19:24:47 16° WNW visible
25 Jan -2.4 18:31:52 10° W 18:34:51 31° NNW 18:35:41 27° N visible
26 Jan -3.1 17:40:10 10° WSW 17:43:22 49° NNW 17:46:30 11° NE visible
26 Jan -0.8 19:18:29 10° NW 19:19:14 13° NW 19:19:14 13° NW visible
27 Jan -1.7 18:26:25 10° WNW 18:28:52 19° NNW 18:29:59 16° N visible
28 Jan -2.1 17:34:25 10° W 17:37:15 26° NNW 17:40:06 10° NE visible
28 Jan -0.8 19:13:07 10° NNW 19:13:26 11° NNW 19:13:26 11° NNW visible
29 Jan -1.4 18:21:06 10° NW 18:22:57 14° N 18:24:07 12° NNE visible
30 Jan -1.6 17:28:59 10° WNW 17:31:15 17° NNW 17:33:30 10° NNE visible
30 Jan -0.9 19:07:16 10° NNW 19:07:30 11° NNW 19:07:30 11° NNW visible
31 Jan -1.4 18:15:34 10° NNW 18:17:02 12° N 18:18:09 11° NNE visible
01 Feb -1.1 19:00:50 10° NNW 19:01:32 13° NNW 19:01:32 13° NNW visible
02 Feb -1.5 18:09:26 10° NNW 18:11:06 13° N 18:12:12 12° NNE visible
